This demonstration page uses our WeatherBlox Daily Observations layout. Learn more.

Left ArrowRight Arrow

Hourly Observations for May 10, 2019

Temp ( °F °C ) Dew Point ( °F °C ) Humidity (%) Winds ( mph kmh ) Pressure ( in mb ) Visibility ( mi km ) Precip ( " mm )
12:52 am 00:52 Mostly Cloudy 48 8.9 40 4.4 74 74 Calm 30.17 1022 10 16 0.00 0.00
1:52 am 01:52 Cloudy 47 8.3 40 4.4 77 77 Calm 30.18 1022 10 16 0.00 0.00
2:52 am 02:52 Partly Cloudy 46 7.8 40 4.4 79 79 Calm 30.16 1022 10 16 0.00 0.00
3:52 am 03:52 Mostly Clear 43 6.1 38 3.3 82 82 Calm 30.18 1022 10 16 0.00 0.00
4:52 am 04:52 Clear 42 5.6 38 3.3 85 85 Calm 30.17 1022 10 16 0.00 0.00
5:52 am 05:52 Mostly Clear with Patchy Fog 40 4.4 36 2.2 86 86 NW 5 7 30.16 1021 10 16 0.00 0.00
6:52 am 06:52 Mostly Sunny 41 5 37 2.8 86 86 NNW 5 7 30.17 1022 10 16 0.00 0.00
7:52 am 07:52 Mostly Sunny 47 8.3 40 4.4 77 77 Calm 30.22 1023 10 16 0.00 0.00
8:52 am 08:52 Partly Cloudy 50 10 40 4.4 68 68 VRB 3 6 30.24 1024 10 16 0.00 0.00
9:52 am 09:52 Partly Cloudy 55 12.8 40 4.4 57 57 S 7 11 30.25 1025 10 16 0.00 0.00
10:52 am 10:52 Mostly Cloudy 58 14.4 33 0.6 39 39 Calm 30.22 1024 10 16 0.00 0.00
11:52 am 11:52 Mostly Cloudy 60 15.6 33 0.6 36 36 NW 5 7 30.19 1023 10 16 0.00 0.00
12:52 pm 12:52 Partly Cloudy 60 15.6 34 1.1 38 38 NNE 9 15 30.17 1022 10 16 0.00 0.00
1:52 pm 13:52 Partly Cloudy 61 16.1 34 1.1 36 36 NNE 9 15 30.15 1021 10 16 0.00 0.00
2:52 pm 14:52 Partly Cloudy 62 16.7 34 1.1 35 35 NNE 6 9 30.14 1021 10 16 0.00 0.00
3:52 pm 15:52 Partly Cloudy 63 17.2 33 0.6 33 33 VRB 3 6 30.13 1020 10 16 0.00 0.00
4:52 pm 16:52 Mostly Cloudy 65 18.3 33 0.6 31 31 N 5 7 30.11 1020 10 16 0.00 0.00
5:52 pm 17:52 Mostly Cloudy 64 17.8 32 0 30 30 Calm 30.10 1019 10 16 0.00 0.00
6:52 pm 18:52 Mostly Cloudy 62 16.7 32 0 32 32 ESE 8 13 30.10 1019 10 16 0.00 0.00
7:52 pm 19:52 Mostly Cloudy 59 15 37 2.8 44 44 SE 8 13 30.09 1019 10 16 0.00 0.00
8:52 pm 20:52 Mostly Cloudy 56 13.3 39 3.9 53 53 ESE 6 9 30.09 1019 10 16 0.00 0.00
9:52 pm 21:52 Mostly Cloudy 55 12.8 38 3.3 53 53 SSE 7 11 30.09 1019 10 16 0.00 0.00
10:52 pm 22:52 Cloudy 55 12.8 38 3.3 53 53 S 5 7 30.09 1019 10 16 0.00 0.00
11:52 pm 23:52 Cloudy 54 12.2 41 5 62 62 SSE 6 9 30.08 1019 10 16 0.00 0.00

Powered by AerisWeather